CW3660 Weather Reports


time (UTC)temp
C
wind
direction
speed
KPH
gust
KPH
rain 1hr
cm
rain 24hr
cm
rain mn
cm
humidity
%
barometer
mb
20260507190017 17 338 8.0 16.1 0.00 0.33 0.03 31 1005.6
20260507185017 17 293 4.8 14.5 0.00 0.36 0.03 31 1005.7
20260507184017 17 315 8.0 19.3 0.00 0.36 0.03 32 1005.9
20260507183018 16 315 11.3 22.5 0.00 0.36 0.03 32 1005.9
20260507182017 16 338 9.7 24.1 0.00 0.36 0.03 32 1005.9
20260507181017 17 293 6.4 14.5 0.00 0.36 0.03 31 1006.0
20260507180017 17 315 9.7 27.4 0.00 0.36 0.03 32 1006.1
20260507175017 17 293 8.0 19.3 0.00 0.36 0.03 32 1006.0
20260507174057 17 270 6.4 19.3 0.00 0.36 0.03 32 1006.0
20260507173017 17 248 6.4 14.5 0.00 0.36 0.03 35 1005.9
20260507172017 16 315 8.0 22.5 0.00 0.36 0.03 35 1005.9
20260507171017 17 315 6.4 17.7 0.00 0.36 0.03 34 1006.1
20260507170017 16 315 6.4 14.5 0.00 0.36 0.03 40 1006.2
20260507165017 16 203 6.4 17.7 0.00 0.36 0.03 41 1006.5
20260507164017 15 315 11.3 24.1 0.00 0.36 0.03 42 1006.6
20260507163017 15 315 9.7 20.9 0.00 0.36 0.03 43 1006.7
20260507162037 15 315 9.7 19.3 0.00 0.36 0.03 45 1006.8
20260507161017 15 315 8.0 17.7 0.00 0.36 0.03 47 1006.9
20260507160017 15 293 8.0 14.5 0.00 0.36 0.03 53 1006.9
20260507155016 15 315 6.4 19.3 0.00 0.36 0.03 52 1006.9
20260507154057 15 248 6.4 16.1 0.00 0.36 0.03 56 1006.9
20260507153058 15 315 6.4 25.7 0.00 0.36 0.03 54 1006.9
20260507152017 15 338 6.4 14.5 0.00 0.36 0.03 58 1007.1
20260507151057 14 338 4.8 12.9 0.00 0.36 0.03 58 1007.1
20260507150017 14 315 4.8 12.9 0.00 0.36 0.03 59 1007.4
20260507145017 14 315 3.2 9.7 0.00 0.36 0.03 61 1007.4
20260507144037 14 338 4.8 11.3 0.00 0.36 0.03 59 1007.5
20260507143017 14 338 4.8 9.7 0.00 0.36 0.03 58 1007.4
20260507142017 14 315 3.2 9.7 0.00 0.36 0.03 60 1007.4
20260507141016 14 338 4.8 14.5 0.00 0.36 0.03 59 1007.5
20260507140037 14 315 4.8 14.5 0.00 0.36 0.03 61 1007.5
20260507135017 13 338 4.8 11.3 0.00 0.36 0.03 63 1007.4
20260507134018 14 23 3.2 6.4 0.00 0.36 0.03 64 1007.3
20260507133016 13 248 3.2 11.3 0.00 0.36 0.03 66 1007.5
20260507132017 13 315 3.2 8.0 0.00 0.36 0.03 69 1007.7
20260507131016 12 338 3.2 11.3 0.00 0.36 0.03 69 1007.7
20260507130017 12 225 4.8 11.3 0.00 0.36 0.03 71 1007.8
20260507125017 12 293 3.2 11.3 0.00 0.36 0.03 74 1007.9
20260507124016 11 315 4.8 12.9 0.00 0.36 0.03 75 1007.8
20260507123016 11 315 4.8 12.9 0.00 0.36 0.03 78 1007.9
20260507122016 10 315 3.2 12.9 0.00 0.36 0.03 80 1008.0
20260507121016 10 315 3.2 11.3 0.00 0.36 0.03 81 1007.9
20260507120017 10 315 3.2 8.0 0.00 0.36 0.03 81 1008.0
20260507115016 10 315 3.2 8.0 0.00 0.36 0.03 83 1007.9
20260507114016 10 315 3.2 8.0 0.00 0.36 0.03 84 1007.8
20260507113016 9 293 1.6 9.7 0.00 0.36 0.03 85 1007.9
20260507112016 9 338 1.6 6.4 0.00 0.36 0.03 85 1007.8
20260507111016 9 23 1.6 6.4 0.00 0.36 0.03 85 1007.6
20260507110153 9 315 1.6 6.4 0.00 0.36 0.08 85 1007.7
20260507105036 8 338 1.6 4.8 0.00 0.36 0.03 85 1007.8
20260507104036 8 315 3.2 11.3 0.00 0.36 0.03 85 1007.4
20260507103036 8 338 3.2 9.7 0.00 0.36 0.03 86 1007.1
20260507102017 8 338 3.2 6.4 0.00 0.36 0.03 87 1007.0
20260507101016 8 338 1.6 8.0 0.00 0.36 0.03 88 1006.8
20260507100016 8 315 3.2 9.7 0.00 0.36 0.03 88 1007.0
20260507095016 9 315 3.2 8.0 0.00 0.36 0.03 87 1006.8
20260507094016 9 0.0 8.0 0.00 0.36 0.03 87 1007.4
20260507093016 9 315 1.6 6.4 0.00 0.36 0.03 87 1006.9
20260507092017 9 315 1.6 3.2 0.00 0.36 0.03 86 1007.2
20260507091016 9 293 1.6 6.4 0.00 0.36 0.03 86 1007.1
20260507090016 9 315 1.6 4.8 0.00 0.36 0.03 86 1007.6
20260507085016 9 293 1.6 4.8 0.00 0.36 0.03 86 1007.2
20260507084016 10 315 3.2 9.7 0.00 0.36 0.03 87 1007.0
20260507083016 10 315 1.6 8.0 0.00 0.36 0.03 88 1007.0
20260507082016 10 315 1.6 6.4 0.00 0.36 0.03 88 1006.8
20260507081016 10 315 1.6 4.8 0.00 0.36 0.03 88 1006.8
20260507080016 10 315 1.6 11.3 0.00 0.36 0.03 88 1006.7
20260507075016 10 315 3.2 9.7 0.00 0.36 0.03 88 1007.1
20260507074016 11 315 1.6 8.0 0.00 0.36 0.03 89 1006.8
20260507073036 11 338 1.6 4.8 0.00 0.36 0.03 89 1006.9
20260507072036 11 338 1.6 4.8 0.00 0.36 0.03 89 1006.5
20260507071016 11 315 1.6 6.4 0.00 0.36 0.03 89 1006.4
20260507070016 11 0.0 4.8 0.00 0.36 0.03 88 1006.3
20260507065016 11 315 1.6 4.8 0.00 0.36 0.03 87 1005.9
20260507064016 11 0.0 3.2 0.00 0.36 0.03 87 1006.1
20260507063016 11 338 1.6 6.4 0.00 0.36 0.03 87 1006.3
20260507062016 11 338 3.2 8.0 0.00 0.36 0.03 87 1006.3
20260507061016 11 338 3.2 6.4 0.00 0.36 0.03 86 1006.1
20260507060036 11 338 3.2 9.7 0.00 0.36 0.03 86 1006.1
20260507055016 11 315 4.8 11.3 0.00 0.36 0.03 86 1006.2
20260507054016 11 315 3.2 11.3 0.00 0.36 0.03 87 1006.7
20260507053016 11 315 3.2 14.5 0.00 0.36 0.03 89 1006.6
20260507052016 12 315 4.8 11.3 0.00 0.36 0.03 91 1006.5
20260507051016 12 315 3.2 6.4 0.03 0.36 0.03 91 1006.7
20260507050016 12 315 1.6 6.4 0.03 0.36 0.03 91 1006.6
20260507045015 12 315 1.6 8.0 0.08 0.36 0.03 91 1006.5
20260507044016 12 315 1.6 6.4 0.08 0.36 0.03 91 1006.6
20260507043016 12 315 1.6 11.3 0.08 0.36 0.03 90 1006.4
20260507042016 12 315 3.2 9.7 0.08 0.36 0.03 90 1006.3
20260507041016 13 315 6.4 17.7 0.05 0.33 0.00 89 1006.3
20260507040015 13 315 4.8 16.1 0.05 0.33 0.33 89 1006.5
20260507035016 14 293 4.8 12.9 0.00 0.28 0.28 91 1006.3
20260507034016 14 293 3.2 11.3 0.00 0.28 0.28 93 1005.9
20260507033016 15 248 3.2 9.7 0.00 0.28 0.28 93 1005.9
20260507032016 15 293 3.2 8.0 0.00 0.28 0.28 94 1005.7
20260507031036 15 225 3.2 11.3 0.00 0.28 0.28 95 1005.4
20260507030116 15 248 3.2 8.0 0.00 0.28 0.28 95 1005.2
20260507025036 15 225 1.6 9.7 0.00 0.28 0.28 94 1005.3
20260507024016 15 225 3.2 9.7 0.00 0.28 0.28 94 1005.4
20260507023016 15 225 3.2 9.7 0.00 0.28 0.28 94 1005.3
20260507022016 15 180 3.2 11.3 0.00 0.28 0.28 94 1005.3
20260507021036 15 180 3.2 12.9 0.00 0.28 0.28 94 1005.1
20260507020016 15 203 3.2 9.7 0.00 0.28 0.28 94 1005.2
20260507015016 15 180 3.2 12.9 0.00 0.28 0.28 94 1005.2
20260507014036 15 203 3.2 11.3 0.00 0.28 0.28 94 1005.3
20260507013016 15 203 3.2 17.7 0.00 0.28 0.28 94 1005.2
20260507012016 15 180 3.2 11.3 0.00 0.28 0.28 94 1005.2
20260507011016 15 180 3.2 12.9 0.00 0.28 0.28 94 1005.3
20260507010016 15 225 4.8 16.1 0.00 0.28 0.28 94 1005.4
20260507005036 15 203 4.8 16.1 0.00 0.28 0.28 94 1005.3
20260507004056 15 180 4.8 11.3 0.00 0.28 0.28 94 1005.2
20260507003056 15 203 3.2 9.7 0.00 0.28 0.28 94 1005.2
20260507002016 15 203 4.8 14.5 0.00 0.28 0.28 94 1005.2
20260507001016 15 180 6.4 19.3 0.03 0.28 0.28 94 1005.2
20260507000016 15 180 6.4 16.1 0.08 0.28 0.28 94 1005.1
20260506235016 15 180 4.8 12.9 0.08 0.28 0.28 94 1004.9
20260506234036 15 203 4.8 9.7 0.10 0.28 0.28 94 1005.0
20260506233016 15 180 6.4 14.5 0.10 0.28 0.28 94 1004.9
20260506232015 15 180 4.8 17.7 0.10 0.28 0.28 93 1004.9
20260506231017 15 158 6.4 14.5 0.10 0.25 0.25 93 1004.9
20260506230016 15 180 4.8 11.3 0.05 0.20 0.20 93 1005.0
20260506225016 15 180 4.8 12.9 0.05 0.20 0.20 93 1005.1
20260506224015 15 180 4.8 9.7 0.03 0.18 0.18 93 1005.1
20260506223035 15 203 4.8 16.1 0.03 0.18 0.18 93 1005.1
20260506222015 15 180 8.0 17.7 0.03 0.18 0.18 92 1005.1
20260506221016 15 203 6.4 17.7 0.00 0.15 0.15 92 1005.3
20260506220017 15 180 6.4 19.3 0.00 0.15 0.15 92 1005.4
20260506215015 15 225 6.4 22.5 0.03 0.15 0.15 92 1005.4
20260506214015 15 203 6.4 16.1 0.03 0.15 0.15 92 1005.4
20260506213036 15 203 8.0 25.7 0.05 0.15 0.15 91 1005.5
20260506212015 15 180 6.4 20.9 0.05 0.15 0.15 91 1005.8
20260506211015 15 180 4.8 14.5 0.05 0.15 0.15 91 1005.9
20260506210015 15 248 4.8 16.1 0.08 0.15 0.15 91 1005.9
20260506205015 15 203 8.0 25.7 0.05 0.13 0.13 90 1006.0
20260506204015 15 225 8.0 24.1 0.05 0.13 0.13 90 1006.1
20260506203016 16 203 6.4 22.5 0.05 0.10 0.10 89 1006.1
20260506202015 16 225 8.0 22.5 0.05 0.10 0.10 89 1006.1
20260506201015 16 180 8.0 20.9 0.08 0.10 0.10 88 1005.9
20260506200015 16 180 6.4 19.3 0.05 0.08 0.08 88 1006.1
20260506195015 17 203 4.8 17.7 0.08 0.08 0.08 87 1006.2
20260506194017 17 180 6.4 14.5 0.08 0.08 0.08 86 1006.1
20260506193018 17 180 3.2 9.7 0.05 0.05 0.05 85 1006.2
20260506192037 17 203 4.8 19.3 0.05 0.05 0.05 83 1006.1
20260506191017 18 248 6.4 16.1 0.03 0.03 0.03 81 1006.1